DECAYED

STARLINK-2184, 47766 (Decayed)

Orbit data source: Space-Track

STARLINK-2184, 47766 was a payload satellite owned by SpaceX/Seattle (US) in LEO that was launched on Thu, 04 Mar 2021 UTC via an FALCON 9 launch vehicle from the Air Force Eastern Test Range (AFETR). Payload-class satellites include a variety of spacecraft equipped with specific instruments for various scientific and technological missions. These include communications satellites like Starlink; space stations such as the ISS; scientific satellites like the Hubble; Earth observation satellites from companies like Planet Labs, Umbra, and HawkEye 360; GPS; miniature CubeSats for education and research; and military/defense satellites.

Not visible in the next 10 days
Identifier
47766, 2021-017AW
Orbit
Decayed
Country
Flag of USUS
Related business
Manufacturer
SpaceX/Seattle
Mission
Decayed Commercial Communications
Bus & Motor
STARLINK, Unknown motor
Mass
260 kg wet, ~248 kg dry
Launch date (UTC)
2021-03-04 (5 years ago)
Launch vehicle
FALCON 9
Launch site
Air Force Eastern Test Range (AFETR)
Object type
Payload
Rocket body
Debris
Shape & HBR
Box + 1 Pan, 10.1 m
Radar Cross Section
13.562 m², Large (>1 m²)

Expand to show TLE details & history
Last TLE update: 1 year ago

TLE from 1 year ago
0 STARLINK-2184
1 47766U 21017AW  25204.23045531  .09898370  12282-4  69079-3 0  9994
2 47766  53.0328 135.9659 0009798 238.9995 277.2239 16.40165202242860
Epoch: 2025-07-23T05:31Z
TLE epoch observation values (Epoch: 2025-07-23T05:31:51.338Z)
Latitude
18.91568°
Longitude
-83.06988°
Altitude
164.963 km
Speed
7.811 km/s
True Right ascension
20h 04m 25s
True Declination
18° 48' 03"
Sunlit
Object was in full shadow at epoch
Visualization orbit readout
Latitude
Unknown
Longitude
Unknown
Altitude
Unknown
Speed
Unknown
Apparent Right ascension
Unknown
Apparent Declination
Unknown
Sunlit
N/A
Visualization observer readout
Local Sidereal Time
05:48:38
Azimuth
Unknown
Elevation
Unknown
Doppler factor
Unknown
Orbital elements
Apogee altitude
172.064 km
Perigee altitude
159.241 km
Semi-major axis
6,543.79 km
Eccentricity
0.00098
Inclination
53.0328°
RAAN
135.9659°
Arg. of periapsis
238.9995°
True anomaly
277.1125°
Mean anomaly
277.2239°
Eccentric anomaly
277.1682°
Mean motion
4.10014 °/min
Orbital period
87.8 mins
BSTAR
0.00069079
Loading maneuver chart data...
Computing Atmospheric mass density...

Documentation

Showing up to 5 results
|